Вернуться в каталог

USA 478

АктивенВоенныеVLEO
NORAD 62547·PAYLOAD·🇺🇸 United States

Запущен Jan 10, 2025 с Vandenberg Space Force Base

Loading…

Ближайшие Пролёты (ближайшие 24 часа)

TLE

УстаревшееSource: Mike McCants

Эпоха: Aug 26, 2026, 02:29 UTC

1 62547U 25005R   26238.10391666 0.00000000  00000-0  00000-0 0    02
2 62547  70.0167 241.5824 0003000 116.9938 243.0061 14.96713491    04

Отслеживайте USA 478 в реальном времени с AllMySat

Download on the App Store